Location: Recife
(8.0585°S, 34.8848°W)
Time: 10:34:36
(UTC-03:00)

S-56A Canister/Altair - Pass Details

Date: 20 April 2026
Orbit: 633 x 2484 km, 38.9° (Epoch: 20 May)

Event Time Altitude Azimuth Distance (km) Brightness Sun altitude
Rises 20:53:08 0° 199° (SSW) 2,929 - -54.1°
Reaches altitude 10° 20:57:10 10° 162° (SSE) 2,042 - -55.1°
Maximum altitude 20:58:33 11° 144° (SE) 1,998 - -55.4°
Drops below altitude 10° 20:59:59 10° 126° (SE) 2,127 - -55.7°
Sets 21:04:30 0° 91° (E) 3,295 - -56.8°
